CZ-6A DEB, 56657

Orbit data source: Space-Track

CZ-6A DEB, 56657 is space debris in SSO originally from a launch on Fri, 11 Nov 2022 UTC launched from the Taiyaun Space Center, China (TSC). Debris objects in space refer to the collection of defunct objects orbiting the Earth. Examples of debris include non-operational satellites, rocket bodies, and fragments generated from explosions, collisions, or faulty payload assembly.

Loading next visibility...
Identifier
56657, 2022-151AGH
Orbit
SSO
Country
Flag of CNCN / PRC
Related business
Manufacturer
SAST
Mission
Spacecraft
Bus & Motor
Unknown
Mass
Unknown
Launch date (UTC)
2022-11-11 (4 years ago)
Launch vehicle
Unknown
Launch site
Taiyaun Space Center, China (TSC)
Object type
Payload
Rocket body
Debris
Shape & HBR
Unknown shape, 0.1 m
Radar Cross Section
Small (<0.1 m²)

Expand to show TLE details & history
Last TLE update: 1 day ago

TLE from 1 day ago
0 CZ-6A DEB
1 56657U 22151AGH 26262.05397374  .00000149  00000-0  15849-3 0  9990
2 56657  98.9624 205.7139 0176236 246.7756 111.4755 13.82061014176620
Epoch: 2026-09-19T01:17Z
TLE epoch observation values (Epoch: 2026-09-19T01:17:43.331Z)
Latitude
-0.00001°
Longitude
-171.68467°
Altitude
1,008.727 km
Speed
7.323 km/s
True Right ascension
13h 42m 51s
True Declination
0° 00' 00"
Sunlit
Object was in daylight at epoch
Visualization orbit readout
Latitude
Unknown
Longitude
Unknown
Altitude
Unknown
Speed
Unknown
Apparent Right ascension
Unknown
Apparent Declination
Unknown
Sunlit
N/A
Visualization observer readout
Local Sidereal Time
06:09:56
Azimuth
Unknown
Elevation
Unknown
Doppler factor
Unknown
Orbital elements
Apogee altitude
1,083.021 km
Perigee altitude
824.591 km
Semi-major axis
7,331.943 km
Eccentricity
0.01762
Inclination
98.9624°
RAAN
205.7139°
Arg. of periapsis
246.7756°
True anomaly
113.33944°
Mean anomaly
111.4755°
Eccentric anomaly
112.40901°
Mean motion
3.45712 °/min
Orbital period
104.13 mins
BSTAR
0.00015849
Loading maneuver chart data...
Computing Atmospheric mass density...
Loading historical data...
Loading historical data...
Loading historical data...
Loading historical data...
Loading historical data...
Loading historical data...
Loading historical data...

Documentation

Showing up to 5 results
|